Theta_e
301 301 302 302 302 302 302 302 303 304 305 306 307 309 311 315 318 319 319 320 320 320 321 319 318 319 317 317 317 316 315 314 310 313 317 321 319 312 309 307 312 312 310
298 299 299 299 300 300 300 300 301 301 302 302 303 304 306 308 311 313 316 317 317 317 318 318 317 317 317 317 317 315 315 315 313 310 314 315 313 312 311 306 306 307 309
296 297 296 296 296 296 297 298 298 299 300 301 301 301 302 304 305 307 308 310 315 318 317 316 316 317 316 316 316 315 316 315 315 312 312 315 316 306 305 306 305 304 304
293 293 293 292 292 293 294 295 296 296 297 297 298 299 300 301 302 304 302 303 304 307 310 317 318 316 316 316 316 316 315 315 314 313 312 313 309 295 298 300 292 290 298
290 290 289 289 290 291 291 292 293 294 295 295 296 296 297 298 298 295 295 296 298 299 302 304 307 308 301 308 315 316 316 314 313 311 310 311 296 288 292 299 298 296 288
286 286 286 286 286 287 288 289 290 291 292 292 293 294 294 294 294 293 293 294 296 296 297 299 302 298 304 299 299 302 310 314 313 311 310 308 307 298 302 298 294 287 287
282 283 283 283 283 283 285 287 287 288 289 290 291 291 291 293 293 292 292 294 295 295 296 297 298 299 297 304 304 301 300 301 304 312 310 311 310 303 300 294 293 292 294
280 280 280 280 280 281 282 284 285 287 287 287 288 289 289 290 291 291 291 293 293 294 295 295 296 298 300 298 301 300 302 305 307 305 306 308 311 310 306 299 295 289 286
277 277 278 278 278 279 280 281 284 284 285 285 286 287 288 289 290 290 291 292 291 292 292 293 293 293 293 294 295 293 294 296 301 300 299 299 298 298 300 291 288 287 284
274 275 276 276 277 277 278 279 281 282 283 284 284 286 287 288 290 290 290 290 289 289 290 290 289 290 291 293 292 292 291 293 294 295 296 295 295 297 295 297 292 288 286
272 273 273 274 275 276 277 277 278 279 280 282 283 286 286 287 288 289 289 288 288 288 287 288 290 291 291 292 292 291 290 293 292 292 293 292 288 288 292 293 292 292 287
270 270 270 272 273 275 274 275 276 276 278 281 282 283 285 286 285 286 285 287 288 285 285 287 288 290 291 292 291 292 293 293 290 289 288 288 286 286 285 284 287 285 287
267 267 269 270 271 272 272 272 273 275 277 278 278 279 281 283 284 283 283 285 286 285 286 286 287 288 289 290 291 291 289 289 289 286 287 288 287 283 280 278 278 279 277
265 267 268 268 269 270 271 272 272 274 274 273 274 276 278 280 280 281 282 283 283 283 284 285 285 287 289 290 288 290 290 290 288 288 288 284 281 280 280 279 280 281 280
265 265 266 267 267 268 269 270 270 272 272 272 273 276 274 274 277 280 280 279 280 281 281 282 284 285 287 288 288 289 289 287 286 287 284 281 280 281 280 280 281 281 277
262 264 265 265 265 266 267 268 271 271 272 273 274 274 274 277 279 278 278 279 279 280 278 278 281 284 285 286 286 287 288 287 287 287 285 283 281 281 280 278 279 280 278
261 262 263 263 264 264 265 265 265 267 270 271 272 273 274 275 275 276 276 277 277 277 276 278 281 284 285 285 286 286 286 288 287 286 285 285 284 282 280 278 278 278 277
260 260 262 263 263 263 263 264 264 263 263 264 268 269 271 272 273 273 274 274 272 275 276 276 278 281 283 284 285 285 286 287 287 286 285 284 283 282 279 279 277 277 274
260 261 262 262 262 262 262 262 263 263 263 263 264 266 267 269 270 270 271 270 270 270 271 272 274 276 278 282 284 285 285 286 287 285 284 284 282 281 280 279 278 277 273
260 260 260 260 261 261 261 261 261 261 262 262 262 263 264 264 263 265 267 268 267 268 269 269 271 272 274 276 280 284 284 285 286 286 285 284 283 282 280 279 278 273 272
259 259 259 259 260 261 261 260 260 260 260 260 261 263 266 264 264 264 264 265 265 265 266 268 268 270 271 273 275 281 284 285 286 286 285 284 282 280 280 279 275 273 271
258 259 259 259 259 259 259 260 260 259 260 260 261 262 265 262 262 262 262 263 264 265 266 266 266 268 269 270 272 273 276 283 285 286 285 284 281 280 279 276 274 273 269
258 258 258 258 259 258 259 259 259 259 259 260 260 260 260 260 260 261 261 262 263 264 265 265 266 266 268 269 271 273 274 277 284 286 285 284 281 279 278 275 273 270 268
257 257 257 258 258 258 258 258 259 258 258 259 259 259 259 259 259 260 260 261 261 262 263 264 264 265 266 267 269 271 273 277 278 286 286 284 280 278 276 274 272 270 269
256 257 257 258 258 258 258 258 258 258 258 258 258 259 259 259 259 259 260 260 260 261 261 262 264 264 265 266 268 270 273 275 276 276 286 284 279 277 275 274 272 270 268
257 257 257 258 257 257 257 257 257 258 257 258 258 259 259 258 258 259 259 259 259 260 261 262 263 264 265 266 267 269 270 273 277 279 284 282 278 275 274 273 271 269 267
Wind_Speed
5 5 5 6 6 6 5 6 7 7 7 7 8 9 10 11 11 12 15 15 15 15 15 15 16 16 12 11 11 12 13 13 16 15 13 13 13 12 10 10 12 12 12
5 5 6 6 6 5 6 7 7 7 7 8 8 8 9 10 11 12 11 12 15 15 15 16 17 12 16 15 12 14 13 15 13 21 15 13 12 12 13 13 13 11 14
5 5 5 6 6 6 6 7 8 8 8 8 8 9 9 9 11 11 13 14 15 14 15 16 16 15 16 13 13 13 13 13 14 14 16 12 12 6 10 10 10 12 11
5 5 6 7 7 6 6 6 7 8 9 10 9 9 10 10 10 10 12 14 15 14 14 15 16 16 16 15 14 15 13 13 13 12 14 13 9 2 4 6 6 4 9
7 5 6 7 7 8 9 8 8 9 8 9 10 8 9 9 7 13 13 14 14 16 16 15 14 15 16 17 12 14 13 13 13 12 12 11 5 3 7 9 13 6 2
5 5 5 5 6 7 7 8 7 8 8 9 9 9 9 7 11 12 13 13 14 14 14 15 15 14 15 17 20 25 24 18 18 12 13 14 14 8 9 7 6 4 6
5 6 6 7 7 8 9 9 9 9 10 10 10 10 11 11 14 17 15 11 12 12 11 12 12 11 12 16 16 18 23 25 28 21 19 18 17 6 7 9 10 11 12
6 8 8 8 8 8 8 8 9 8 8 9 9 10 10 10 15 17 18 13 11 11 11 12 14 14 13 13 16 17 17 16 13 11 16 16 16 14 10 12 13 5 3
7 9 9 9 9 9 8 9 9 9 9 9 10 11 11 11 12 15 16 11 10 11 10 12 13 15 20 22 16 16 15 16 12 18 19 20 18 17 10 6 7 10 3
9 10 10 10 9 9 9 10 10 10 10 9 10 10 10 12 14 13 13 8 10 9 10 9 11 11 17 20 16 15 16 14 12 14 11 12 12 12 16 16 11 12 8
10 11 12 11 11 9 10 10 11 11 11 11 11 10 10 10 12 15 16 11 9 10 11 11 9 17 20 22 22 15 16 17 16 12 12 9 5 3 6 9 10 11 11
11 13 13 13 10 9 12 11 11 11 11 10 10 10 8 8 10 12 18 18 16 12 12 12 14 24 27 27 22 23 24 20 10 9 7 7 4 2 1 2 5 4 3
12 12 12 13 11 10 10 11 10 9 9 9 9 9 9 7 8 15 16 18 20 14 11 17 29 28 29 23 23 21 19 9 7 6 7 7 2 2 5 4 5 9 9
12 10 11 12 12 10 8 7 8 8 9 9 10 10 10 9 10 9 9 11 16 15 17 15 20 24 22 17 13 13 8 8 6 6 6 1 1 2 2 2 2 6 5
12 11 11 10 12 11 9 8 9 10 10 11 10 11 11 11 11 20 20 14 13 17 22 14 13 11 11 10 10 10 7 5 6 6 2 3 4 4 4 4 3 4 4
11 10 9 10 10 10 10 11 14 17 20 22 24 19 12 23 25 27 30 29 28 29 15 13 13 12 12 12 12 13 9 7 7 7 5 5 6 7 6 4 2 6 4
11 12 10 11 10 10 11 11 13 12 21 21 22 22 24 24 29 28 27 28 30 25 11 11 12 12 12 11 11 11 13 9 7 7 8 7 7 7 7 7 7 6 5
11 14 10 10 11 10 11 12 11 12 13 13 14 20 23 28 27 26 27 27 13 10 9 11 12 12 13 13 12 12 13 10 8 8 8 8 8 8 7 8 8 7 6
10 9 10 11 11 11 11 11 11 12 13 13 12 16 17 25 27 28 24 10 10 10 10 11 12 12 13 14 14 14 14 11 10 8 8 8 8 9 9 9 9 12 11
11 14 13 11 10 11 10 11 11 12 13 12 12 12 11 15 14 13 11 11 11 11 11 12 12 13 13 14 15 14 13 13 10 9 9 9 9 9 10 11 10 10 10
9 10 13 11 10 10 10 11 11 12 12 12 13 13 25 17 15 14 13 13 13 13 12 13 13 13 13 13 14 15 15 14 12 10 9 9 9 9 9 9 10 11 11
10 10 10 10 10 11 11 12 12 13 13 14 14 14 27 14 14 14 14 13 13 14 13 14 14 14 13 14 14 15 17 17 13 11 10 10 10 10 10 10 11 11 11
10 11 11 11 11 14 12 12 13 13 14 15 15 15 13 13 14 14 15 14 13 13 13 14 15 15 14 14 14 15 16 17 15 11 11 11 10 10 10 11 13 13 13
11 12 12 11 11 12 13 13 13 17 16 15 15 15 15 15 15 17 16 14 14 15 14 15 15 20 17 17 15 15 16 16 16 14 15 13 12 13 11 12 13 15 14
11 11 12 12 12 13 14 14 14 15 15 16 16 16 16 16 16 16 15 14 15 15 17 16 15 20 23 26 25 26 24 26 26 26 14 15 15 17 14 12 14 13 15
11 12 11 11 12 12 13 14 15 16 16 16 16 16 17 17 17 17 16 16 15 16 18 15 18 26 28 24 27 29 30 30 26 29 19 13 13 13 12 14 19 13 18
Wind_Direction
51 45 47 42 33 35 28 11 357 338 335 321 313 306 300 294 283 274 265 261 255 253 246 243 242 237 236 236 235 235 238 238 249 262 259 259 238 222 221 214 228 222 217
38 32 31 23 19 24 17 4 352 345 343 339 330 317 309 304 300 290 286 271 266 262 257 253 249 246 243 241 239 238 238 238 245 259 256 261 242 226 232 221 224 221 222
30 33 31 23 11 5 4 358 350 343 342 342 343 336 326 319 310 304 298 290 283 266 257 256 260 256 252 248 244 247 245 246 245 252 261 258 259 224 234 238 231 229 229
26 29 23 2 355 353 349 357 350 341 342 342 342 338 330 329 322 334 329 314 307 302 310 296 264 257 262 259 252 249 249 254 250 248 253 257 256 185 254 239 247 246 231
360 12 7 353 355 352 344 348 344 338 337 332 324 333 333 328 341 334 327 316 310 304 299 297 295 306 272 253 258 261 259 254 249 248 255 257 228 182 205 215 236 224 285
347 343 352 348 352 355 343 332 343 334 338 322 327 325 326 321 326 320 318 318 309 306 305 307 302 294 293 286 262 255 253 258 260 257 259 253 249 221 234 226 206 166 241
353 340 351 359 353 356 344 340 342 340 329 321 322 325 323 318 327 324 315 314 305 307 304 304 304 306 303 302 303 282 263 254 249 256 261 260 269 228 214 210 211 221 234
20 340 348 349 355 345 341 336 331 319 313 317 318 322 316 310 317 320 316 313 315 313 309 308 304 304 302 303 303 295 290 284 274 253 251 260 263 269 225 214 211 199 46
9 337 335 341 338 339 340 330 322 324 317 318 312 308 309 308 308 317 327 314 306 310 316 307 305 307 309 311 305 297 292 290 287 269 261 267 276 276 237 129 163 169 160
349 327 332 334 330 328 325 323 320 312 307 309 300 298 298 303 303 296 311 311 307 311 310 298 286 286 298 300 302 302 294 288 283 289 278 265 257 255 216 199 175 193 159
328 340 332 328 325 325 325 323 317 318 312 303 299 297 290 280 293 309 316 318 311 313 312 310 306 299 298 298 297 291 280 287 286 285 283 277 274 236 201 205 187 187 180
341 354 328 326 326 328 327 321 322 323 312 307 307 303 294 295 292 308 319 311 315 312 306 306 305 306 303 300 304 295 289 295 284 271 260 262 250 208 106 89 143 103 135
349 350 319 323 319 329 322 321 319 314 306 312 305 299 301 308 303 316 316 318 315 310 302 300 304 305 303 300 297 295 296 288 278 260 263 256 242 73 97 68 72 92 73
338 326 327 324 319 319 318 310 310 303 310 307 308 307 307 313 313 316 315 315 318 313 310 303 299 294 289 282 288 295 291 280 263 261 264 289 119 152 161 153 234 150 125
331 328 327 313 315 315 309 306 302 300 302 307 300 302 314 304 300 306 316 317 312 306 313 305 301 298 295 293 293 293 284 269 267 260 220 213 209 202 197 194 142 224 141
322 328 319 312 313 309 313 308 298 294 296 298 295 294 294 289 301 310 306 305 307 309 304 299 294 293 293 298 297 296 292 270 263 261 234 217 214 207 200 185 170 193 226
315 312 310 311 303 313 315 312 310 308 300 296 295 295 294 297 302 301 303 303 304 304 284 286 285 287 290 290 291 289 290 281 253 247 242 232 221 212 191 195 189 183 182
308 305 298 298 303 309 306 305 304 301 306 307 299 300 299 299 300 299 303 304 294 280 282 286 290 295 291 286 286 284 286 282 254 243 239 232 218 212 201 203 196 193 156
305 301 302 302 299 302 299 294 291 291 292 295 298 299 305 300 303 301 298 284 284 283 284 284 286 288 287 288 285 283 280 274 267 244 237 230 218 212 212 206 199 190 163
310 304 301 300 303 300 296 293 291 289 291 293 295 297 302 304 304 304 297 291 286 283 283 281 282 281 282 284 286 280 276 274 265 251 240 232 222 213 217 198 187 173 177
305 301 299 291 295 296 292 289 289 288 287 285 285 286 288 291 293 288 288 287 287 281 279 279 279 279 280 282 284 290 273 268 263 255 237 231 219 215 214 201 175 172 163
296 297 300 296 295 293 292 292 290 286 285 286 287 286 290 285 280 278 276 274 271 271 275 278 277 274 275 278 281 286 284 279 260 250 228 223 212 210 205 190 176 170 161
304 302 299 296 294 294 291 289 289 288 288 287 288 288 286 281 278 276 277 277 275 273 270 269 272 275 273 270 267 271 274 278 278 252 233 220 206 202 193 184 182 165 169
299 296 292 290 292 291 290 290 289 288 287 285 284 283 282 280 279 278 277 276 274 274 271 269 267 268 274 271 269 267 270 268 286 255 234 223 204 195 186 183 184 178 169
293 291 290 292 292 294 294 290 288 287 286 285 284 284 284 283 282 281 280 279 277 274 273 273 270 271 270 274 269 269 267 281 277 277 253 216 200 188 184 181 178 176 166
288 286 286 288 287 287 287 288 286 285 284 284 284 283 283 283 281 280 280 277 275 274 274 272 273 274 276 277 276 272 269 264 274 267 246 201 186 179 177 173 175 169 167